DECAYED

OBJECT U, 47950 (Decayed)

Orbit data source: Space-Track

You're viewing an Uncataloged Satellite

Recently launched and/or uncataloged satellites may have evolving metadata. Metadata may include but not limited to: Owner, Maufacturer, Bus, Motor, and Mission.

OBJECT U, 47950 was a satellite in LEO that was launched on Mon, 22 Mar 2021 UTC via a SOYUZ-2-1A launch vehicle from the Tyuratam Missile And Space Complex (TTMTR). Unknown objects in Earth's orbit typically refer to objects detected orbiting the Earth but have not yet been identified or cataloged. These objects could be anything from previously untracked satellites, spent rocket stages, debris from satellite collisions, or even natural meteoroids temporarily captured by Earth's gravity. This object's orbit decayed before it could be identified.

Not visible in the next 10 days
Identifier
47950, 2021-022U
Orbit
Decayed
Country
Flag of TBDTBD
Related business
Manufacturer
INPE CRS
Mission
Decayed Amateur Science
Bus & Motor
CUBESAT 2U, Unknown motor
Mass
2 kg wet, 2 kg dry
Launch date (UTC)
2021-03-22 (5 years ago)
Launch vehicle
SOYUZ-2-1A
Launch site
Tyuratam Missile And Space Complex (TTMTR)
Object type
Unknown
Shape & HBR
Box, 0.1 m
Radar Cross Section
0.025 m², Small (<0.1 m²)

Expand to show TLE details & history
Last TLE update: 11 months ago

TLE from 11 months ago
0 OBJECT U
1 47950U 21022U   25011.65862565  .12551743  26866-5  93983-3 0  9990
2 47950  97.3964 286.0308 0005868 140.3436 219.8294 16.40668719211119
Epoch: 2025-01-11T15:48Z
TLE epoch observation values (Epoch: 2025-01-11T15:48:25.256Z)
Latitude
0.00001°
Longitude
-62.47965°
Altitude
170.226 km
Speed
7.802 km/s
True Right ascension
19h 04m 07s
True Declination
0° 00' 00"
Sunlit
Object was in daylight at epoch
Visualization orbit readout
Latitude
Unknown
Longitude
Unknown
Altitude
Unknown
Speed
Unknown
Apparent Right ascension
Unknown
Apparent Declination
Unknown
Sunlit
N/A
Visualization observer readout
Local Sidereal Time
13:19:03
Azimuth
Unknown
Elevation
Unknown
Doppler factor
Unknown
Orbital elements
Apogee altitude
164.668 km
Perigee altitude
156.994 km
Semi-major axis
6,538.968 km
Eccentricity
0.00059
Inclination
97.3964°
RAAN
286.0308°
Arg. of periapsis
140.3436°
True anomaly
219.78636°
Mean anomaly
219.8294°
Eccentric anomaly
219.80788°
Mean motion
4.10468 °/min
Orbital period
87.7 mins
BSTAR
0.00093983
Loading maneuver chart data...
Computing Atmospheric mass density...
Loading historical data...
Loading historical data...
Loading historical data...
Loading historical data...
Loading historical data...
Loading historical data...
Loading historical data...

Documentation

Showing up to 5 results
|